Cedar Rapids, IA

12:05 AM CST on November 19, 2019 (GMT -0600)
The Eastern Iowa Airport

Weather History for KCID - September, 2019

Change the Weather History Date:

Friday, September 13, 2019

  Actual Average Record
Temperature  
Mean Temperature 61 °F 64 °F  
Max Temperature 69 °F 76 °F 96 °F (1930)
Min Temperature 53 °F 52 °F 35 °F (1975)
Degree Days  
Heating Degree Days 4 4  
Month to date heating degree days 11 30  
Since 1 July heating degree days 19 49  
Cooling Degree Days 0 3  
Month to date cooling degree days 56 47  
Year to date cooling degree days 708 715  
Growing Degree Days 12 (Base 50)    
Moisture  
Dew Point 57 °F    
Average Humidity 79    
Maximum Humidity 100    
Minimum Humidity 58    
Precipitation  
Precipitation 0.00 in 0.10 in 2.67 in (1961)
Month to date precipitation 2.02 1.46  
Year to date precipitation 29.87 26.76  
Sea Level Pressure  
Sea Level Pressure 30.06 in    
Wind  
Wind Speed 10 mph (WSW)    
Max Wind Speed 24 mph    
Max Gust Speed 30 mph    
Visibility 10 miles    
Events      
T = Trace of Precipitation, MM = Missing Value Source: NWS Daily Summary

Daily Weather History Graph

Daily Weather History Graph

Search for Another Location

Airport or City:

Astronomy

Sep. 13, 2019 Rise Set
Actual Time 6:44 AM CDT 7:20 PM CDT
Civil Twilight 6:16 AM CDT 7:48 PM CDT
Nautical Twilight 5:43 AM CDT 8:21 PM CDT
Astronomical Twilight 5:09 AM CDT 8:55 PM CDT
Moon 7:34 PM CDT (9/13) 6:00 AM CDT (9/13)
Length of Visible Light 13h 31m
Length of Day
12h 35m
Full, 100% of the Moon is Illuminated
Sep 13
Full
Sep 13
Full
Sep 21
Last Quarter
Sep 28
New
Oct 5
First Quarter

Hourly Weather History & Observations

Time (CDT) Temp. Dew Point Humidity Pressure Visibility Wind Dir Wind Speed Gust Speed Precip Events Conditions
12:52 AM 66.9 °F 66.0 °F 97% 29.93 in 10.0 mi WSW 4.6 mph - N/A   Clear
1:52 AM 66.0 °F 64.9 °F 96% 29.94 in 10.0 mi SW 4.6 mph - N/A   Clear
2:52 AM 66.0 °F 64.9 °F 96% 29.94 in 10.0 mi SW 8.1 mph - N/A   Clear
3:52 AM 64.0 °F 62.1 °F 93% 29.94 in 10.0 mi West 8.1 mph - N/A   Clear
4:52 AM 61.0 °F 59.0 °F 93% 29.96 in 10.0 mi SW 9.2 mph - N/A   Clear
5:52 AM 59.0 °F 55.9 °F 90% 29.98 in 10.0 mi WSW 9.2 mph - N/A   Clear
6:52 AM 57.9 °F 55.9 °F 93% 30.00 in 10.0 mi WSW 8.1 mph - N/A   Clear
7:52 AM 59.0 °F 57.0 °F 93% 30.03 in 10.0 mi WSW 10.4 mph - N/A   Clear
8:52 AM 62.1 °F 57.0 °F 84% 30.04 in 10.0 mi West 10.4 mph - N/A   Partly Cloudy
9:05 AM 63.0 °F 57.9 °F 84% 30.06 in 10.0 mi West 16.1 mph 21.9 mph N/A   Mostly Cloudy
9:52 AM 61.0 °F 57.0 °F 87% 30.06 in 10.0 mi WSW 16.1 mph 21.9 mph N/A   Overcast
10:13 AM 64.0 °F 57.9 °F 80% 30.07 in 10.0 mi WSW 13.8 mph 21.9 mph N/A   Overcast
10:30 AM 63.0 °F 55.9 °F 78% 30.08 in 10.0 mi West 19.6 mph 29.9 mph N/A   Overcast
10:42 AM 64.0 °F 55.0 °F 73% 30.08 in 10.0 mi West 17.3 mph 29.9 mph N/A   Mostly Cloudy
11:21 AM 63.0 °F 54.0 °F 72% 30.09 in 10.0 mi West 20.7 mph 27.6 mph N/A   Mostly Cloudy
11:48 AM 62.6 °F 55.4 °F 77% 30.10 in 10.0 mi West 16.1 mph 23.0 mph N/A   Overcast
11:52 AM 62.1 °F 54.0 °F 75% 30.09 in 10.0 mi WSW 17.3 mph 26.5 mph N/A   Overcast
12:52 PM 66.0 °F 52.0 °F 60% 30.10 in 10.0 mi WNW 16.1 mph 26.5 mph N/A   Mostly Cloudy
1:52 PM 66.0 °F 55.0 °F 68% 30.10 in 10.0 mi WSW 16.1 mph 25.3 mph N/A   Overcast
2:52 PM 66.0 °F 54.0 °F 65% 30.10 in 10.0 mi West 13.8 mph 24.2 mph N/A   Mostly Cloudy
3:52 PM 68.0 °F 55.0 °F 63% 30.10 in 10.0 mi WSW 17.3 mph - N/A   Mostly Cloudy
4:52 PM 68.0 °F 55.0 °F 63% 30.09 in 10.0 mi West 13.8 mph - N/A   Partly Cloudy
6:52 PM 64.0 °F 57.0 °F 78% 30.10 in 10.0 mi SW 6.9 mph - N/A   Clear
7:52 PM 60.1 °F 57.0 °F 90% 30.11 in 10.0 mi SW 4.6 mph - N/A   Clear
8:52 PM 57.0 °F 55.0 °F 93% 30.12 in 10.0 mi SW 5.8 mph - N/A   Clear
9:52 PM 57.0 °F 55.0 °F 93% 30.14 in 10.0 mi SSW 3.5 mph - N/A   Clear
11:52 PM 54.0 °F 53.1 °F 97% 30.15 in 10.0 mi WSW 4.6 mph - N/A   Unknown